Location: Amon Carter Post Office
(32.8281°N, 97.0484°W)
Time: 08:48:11
(UTC+00:00)

Sich 1 - Visible Passes

Search period start: 05 July 2022 00:00
Search period end: 15 July 2022 00:00
Orbit: 592 x 624 km, 82.5° (Epoch: 04 July)

Date Brightness Start Highest point End Pass type
(mag) Time Alt. Az. Time Alt. Az. Time Alt. Az.
05 Jul 4.0 09:16:50 26° SE 09:18:42 42° E 09:22:44 10° NNE visible
05 Jul 5.1 10:54:56 10° W 10:56:29 12° WNW 10:58:03 10° NW visible
06 Jul 3.0 09:31:02 40° S 09:32:30 81° E 09:36:47 10° N visible
07 Jul 3.2 09:45:12 40° SW 09:46:22 53° W 09:50:33 10° N visible
08 Jul 5.3 08:22:24 16° E 08:22:58 17° E 08:25:41 10° NE visible
08 Jul 4.0 09:59:21 26° WSW 10:00:18 28° W 10:04:01 10° NNW visible
09 Jul 4.5 08:36:32 30° E 08:36:40 30° E 08:40:24 10° NNE visible
09 Jul 4.7 10:13:28 15° W 10:14:18 16° WNW 10:16:58 10° NW visible
10 Jul 3.4 08:50:37 56° E 08:50:37 56° E 08:54:38 10° NNE visible
11 Jul 3.1 09:04:41 67° NNW 09:04:41 67° NNW 09:08:32 10° N visible
12 Jul 5.8 07:41:48 11° ENE 07:41:48 11° ENE 07:42:36 10° ENE visible
12 Jul 3.8 09:18:44 37° WNW 09:18:44 37° WNW 09:22:10 10° N visible
13 Jul 5.3 07:55:50 19° ENE 07:55:50 19° ENE 07:57:55 10° NE visible
13 Jul 4.6 09:32:46 21° WNW 09:32:46 21° WNW 09:35:25 10° NNW visible
14 Jul 4.8 08:09:50 29° NE 08:09:50 29° NE 08:12:21 10° NNE visible
14 Jul 5.2 09:46:46 12° WNW 09:46:46 12° WNW 09:47:50 10° NW visible
